Weather in Bershakovo

Russia / Belgorod Oblast     50°32′40″N   37°25′55″E
temp.,
°C
wind,
m/s
gust,
m/s
humid.,
%
clouds,
%
prec.,
mm/h
press.,
hPa
HPBL,
m
24 june, thu
thu2400:00+22ene46785 0.0 101778
03:00+21ne47785 0.0 1018101
06:00+21ene410796 0.0 1018168
09:00+26e59655 0.0 1018370
12:00+30e575481 0.0 1018735
15:00+31e565313 0.0 10181021
18:00+29ene47665 0.0 1017412
21:00+24ene35785 0.0 101772
25 june, fri
fri2500:00+22ne47805 0.0 1017107
03:00+21ne47805 0.0 1016106
06:00+21ne368542 0.1 1016147
09:00+26ene466963 0.1 1016405
12:00+29ene56605 0.0 1016938
15:00+30ene565665 0.0 10151371
18:00+29ene46675 0.2 1014391
21:00+24ene34796 0.4 101442
26 june, sat
sat2600:00+23ene33835 0.0 101445
03:00+21e34865 0.3 101463
06:00+22ene368916 2.2 1014139
09:00+26ene3573100 2.2 1014323
12:00+29ene346295 0.0 1013677
15:00+30ene4557100 0.0 10121001
18:00+29ene366778 0.0 1012502
21:00+24ene337946 0.0 101232
27 june, sun
sun2700:00+23ene33822 0.0 101139
03:00+21e22815 0.0 101224
06:00+22ene37835 0.0 1012139
09:00+27ene576925 0.0 1011408
12:00+30ene56575 0.0 1011823
15:00+31e575486 0.0 10111322
18:00+30e48665 0.0 1009452
21:00+25ene36815 0.0 100982
28 june, mon
mon2800:00+24e497994 0.0 1009159
03:00+23e487431 0.0 1008156
06:00+22ese35835 0.0 1008131
09:00+26sse567620 0.0 1009630
12:00+28s6862100 0.0 10091165
15:00+29ssw56605 0.0 10091482
18:00+29ssw34665 0.0 10081407
21:00+22sw368964 1.9 1009105